SL-14 DEB

Satellite information

Favourite Embed

Satellite Type and Status

DEBRISIN ORBIT

Key statistics

Satellite SL-14 DEB at a glance.

Uptime

17216

Days in orbit

Revolutions

≈ 13.4

Per day

Orbit

LEO

Low Earth Orbit

Inclination

82.8

Latest

Satellite identification and parameters

Extended collection of information and parameters for SL-14 DEB.

Object identification

Identified? True

Debris? True

Object name: SL-14 DEB

International designator: 1978-100AQ

Object number (NORAD): 20016

Object ID (CCSDS): 20016

Country: COMMONWEALTH OF INDEPENDENT STATES (CIS)

Current information (Y/N): Y

RCS size: SMALL

Orbital parameters

Period: 107.522 minutes

Inclination: 82.7825 deg

SMA: 7490.189 km

Apoapsis: 1432.831 km

Periapsis: 791.277 km

RAAN: 299.3262 deg

Eccentricy: 0.0428263

Argument of periapsis: 295.6171 deg

Mean anomaly: 60.13 deg

Mean motion: 13.3925609 rev/day

Mean motion (dot): 0.00016949 rev/day2

B* drag term: 0.018429 1/REarth

Two-line elements (TLE)

Creation date: Dec. 12, 2025, 7:26 a.m.

Reference frame: TEME

Reference center: EARTH

Epoch: Dec. 11, 2025, 9:47 p.m. UTC

TLE line 0: 0 SL-14 DEB

TLE line 1: 1 20016U 78100AQ 25345.90775252 .00016949 00000-0 18429-1 0 9995

TLE line 2: 2 20016 82.7825 299.3262 0428263 295.6171 60.1300 13.39256090587167

Live tracking on map

Real-time ground track for satellite SL-14 DEB.

In-orbit conjunctions

A list of the most updated potential collisions computed for object SL-14 DEB.

Target Orbit TCA Probability of collision Miss distance Type
ORSTED SSO 2025-08-12 19:40:29 0.0004818692 223.0 (m) PAYLOAD

Associated space launch

Mass model of the Meteor-2 meteorological satellite

SL-14 DEB was lifted into orbit during the mission ‘Tsiklon-3 | Meteor-2-GVM’, on board a Tsiklon-3 space rocket.

The launch took place on Oct. 26, 1978, 7 a.m. from 32/2.

For more information about the launch, click the button.

Launch to space Tsiklon-3 | Meteor-2-GVM
Tsiklon-3 | Meteor-2-GVM

Agency: N/A

Status: Launch Successful

Launch date: Oct. 26, 1978, 7 a.m. UTC

Rocket: Tsiklon-3

Launch pad: 32/2

Location: Plesetsk Cosmodrome, Russian Federation

...

Latest news about this satellite

There are no fresh news available about this satellite. Check back as we update our databases every day.


Newsletter sign-up

Weekly statistics, charts and insights to help you stay on top of the space industry.